Year,Month,Day,Hour,Minute,Value (Times are PST for temperature in C)
2019,04,01,00,00,6.10
2019,04,01,00,01,6.10
2019,04,01,00,02,6.10
2019,04,01,00,03,6.10
2019,04,01,00,04,6.10
2019,04,01,00,05,6.10
2019,04,01,00,06,6.10
2019,04,01,00,07,6.00
2019,04,01,00,08,6.00
2019,04,01,00,09,6.00
2019,04,01,00,10,5.90
2019,04,01,00,11,5.90
2019,04,01,00,12,5.80
2019,04,01,00,13,5.80
2019,04,01,00,14,5.70
2019,04,01,00,15,5.70
2019,04,01,00,16,5.70
2019,04,01,00,17,5.70
2019,04,01,00,18,5.70
2019,04,01,00,19,5.70
2019,04,01,00,20,5.70
2019,04,01,00,21,5.70
2019,04,01,00,22,5.60
2019,04,01,00,23,5.60
2019,04,01,00,24,5.60
2019,04,01,00,25,5.60
2019,04,01,00,26,5.50
2019,04,01,00,27,5.50
2019,04,01,00,28,5.40
2019,04,01,00,29,5.40
2019,04,01,00,30,5.40
2019,04,01,00,31,5.30
2019,04,01,00,32,5.30
2019,04,01,00,33,5.30
2019,04,01,00,34,5.30
2019,04,01,00,35,5.20
2019,04,01,00,36,5.20
2019,04,01,00,37,5.20
2019,04,01,00,38,5.20
2019,04,01,00,39,5.20
2019,04,01,00,40,5.20
2019,04,01,00,41,5.20
2019,04,01,00,42,5.20
2019,04,01,00,43,5.20
2019,04,01,00,44,5.20
2019,04,01,00,45,5.20
2019,04,01,00,46,5.20
2019,04,01,00,47,5.20
2019,04,01,00,48,5.20
2019,04,01,00,49,5.30
2019,04,01,00,50,5.30
2019,04,01,00,51,5.40
2019,04,01,00,52,5.40
2019,04,01,00,53,5.40
2019,04,01,00,54,5.40
2019,04,01,00,55,5.30
2019,04,01,00,56,5.40
2019,04,01,00,57,5.40
2019,04,01,00,58,5.40
2019,04,01,00,59,5.40
2019,04,01,01,00,5.40
2019,04,01,01,01,5.40
2019,04,01,01,02,5.40
2019,04,01,01,03,5.50
2019,04,01,01,04,5.50
2019,04,01,01,05,5.60
2019,04,01,01,06,5.60
2019,04,01,01,07,5.60
2019,04,01,01,08,5.60
2019,04,01,01,09,5.60
2019,04,01,01,10,5.60
2019,04,01,01,11,5.60
2019,04,01,01,12,5.60
2019,04,01,01,13,5.60
2019,04,01,01,14,5.60
2019,04,01,01,15,5.60
2019,04,01,01,16,5.60
2019,04,01,01,17,5.60
2019,04,01,01,18,5.60
2019,04,01,01,19,5.60
2019,04,01,01,20,5.60
2019,04,01,01,21,5.60
2019,04,01,01,22,5.50
2019,04,01,01,23,5.50
2019,04,01,01,24,5.50
2019,04,01,01,25,5.50
2019,04,01,01,26,5.50
2019,04,01,01,27,5.50
2019,04,01,01,28,5.60
2019,04,01,01,29,5.60
2019,04,01,01,30,5.60
2019,04,01,01,31,5.60
2019,04,01,01,32,5.60
2019,04,01,01,33,5.70
2019,04,01,01,34,5.70
2019,04,01,01,35,5.70
2019,04,01,01,36,5.70
2019,04,01,01,37,5.70
2019,04,01,01,38,5.70
2019,04,01,01,39,5.70
2019,04,01,01,40,5.60
2019,04,01,01,41,5.60
2019,04,01,01,42,5.60
2019,04,01,01,43,5.60
2019,04,01,01,44,5.60
2019,04,01,01,45,5.50
2019,04,01,01,46,5.50
2019,04,01,01,47,5.50
2019,04,01,01,48,5.60
2019,04,01,01,49,5.60
2019,04,01,01,50,5.60
2019,04,01,01,51,5.60
2019,04,01,01,52,5.60
2019,04,01,01,53,5.60
2019,04,01,01,54,5.60
2019,04,01,01,55,5.60
2019,04,01,01,56,5.60
2019,04,01,01,57,5.60
2019,04,01,01,58,5.60
2019,04,01,01,59,5.60
2019,04,01,02,00,5.60
2019,04,01,02,01,5.60
2019,04,01,02,02,5.50
2019,04,01,02,03,5.50
2019,04,01,02,04,5.40
2019,04,01,02,05,5.40
2019,04,01,02,06,5.40
2019,04,01,02,07,5.40
2019,04,01,02,08,5.30
2019,04,01,02,09,5.30
2019,04,01,02,10,5.30
2019,04,01,02,11,5.20
2019,04,01,02,12,5.20
2019,04,01,02,13,5.20
2019,04,01,02,14,5.10
2019,04,01,02,15,5.10
2019,04,01,02,16,5.10
2019,04,01,02,17,5.10
2019,04,01,02,18,5.10
2019,04,01,02,19,5.20
2019,04,01,02,20,5.20
2019,04,01,02,21,5.20
2019,04,01,02,22,5.20
2019,04,01,02,23,5.20
2019,04,01,02,24,5.20
2019,04,01,02,25,5.20
2019,04,01,02,26,5.30
2019,04,01,02,27,5.30
2019,04,01,02,28,5.40
2019,04,01,02,29,5.40
2019,04,01,02,30,5.50
2019,04,01,02,31,5.60
2019,04,01,02,32,5.70
2019,04,01,02,33,5.80
2019,04,01,02,34,5.80
2019,04,01,02,35,5.90
2019,04,01,02,36,5.90
2019,04,01,02,37,6.00
2019,04,01,02,38,6.10
2019,04,01,02,39,6.10
2019,04,01,02,40,6.20
2019,04,01,02,41,6.20
2019,04,01,02,42,6.30
2019,04,01,02,43,6.30
2019,04,01,02,44,6.40
2019,04,01,02,45,6.40
2019,04,01,02,46,6.50
2019,04,01,02,47,6.60
2019,04,01,02,48,6.60
2019,04,01,02,49,6.60
2019,04,01,02,50,6.60
2019,04,01,02,51,6.50
2019,04,01,02,52,6.50
2019,04,01,02,53,6.40
2019,04,01,02,54,6.30
2019,04,01,02,55,6.30
2019,04,01,02,56,6.20
2019,04,01,02,57,6.10
2019,04,01,02,58,6.00
2019,04,01,02,59,6.00
2019,04,01,03,00,5.90
2019,04,01,03,01,5.90
2019,04,01,03,02,5.80
2019,04,01,03,03,5.80
2019,04,01,03,04,5.80
2019,04,01,03,05,5.70
2019,04,01,03,06,5.70
2019,04,01,03,07,5.70
2019,04,01,03,08,5.80
2019,04,01,03,09,5.80
2019,04,01,03,10,5.90
2019,04,01,03,11,5.90
2019,04,01,03,12,5.90
2019,04,01,03,13,5.90
2019,04,01,03,14,5.90
2019,04,01,03,15,5.90
2019,04,01,03,16,6.00
2019,04,01,03,17,6.00
2019,04,01,03,18,6.00
2019,04,01,03,19,6.00
2019,04,01,03,20,6.10
2019,04,01,03,21,6.10
2019,04,01,03,22,6.10
2019,04,01,03,23,6.10
2019,04,01,03,24,6.10
2019,04,01,03,25,6.20
2019,04,01,03,26,6.20
2019,04,01,03,27,6.20
2019,04,01,03,28,6.20
2019,04,01,03,29,6.20
2019,04,01,03,30,6.20
2019,04,01,03,31,6.20
2019,04,01,03,32,6.30
2019,04,01,03,33,6.30
2019,04,01,03,34,6.30
2019,04,01,03,35,6.30
2019,04,01,03,36,6.30
2019,04,01,03,37,6.30
2019,04,01,03,38,6.30
2019,04,01,03,39,6.40
2019,04,01,03,40,6.40
2019,04,01,03,41,6.40
2019,04,01,03,42,6.40
2019,04,01,03,43,6.40
2019,04,01,03,44,6.40
2019,04,01,03,45,6.40
2019,04,01,03,46,6.40
2019,04,01,03,47,6.30
2019,04,01,03,48,6.30
2019,04,01,03,49,6.30
2019,04,01,03,50,6.20
2019,04,01,03,51,6.20
2019,04,01,03,52,6.20
2019,04,01,03,53,6.10
2019,04,01,03,54,6.10
2019,04,01,03,55,6.10
2019,04,01,03,56,6.00
2019,04,01,03,57,6.00
2019,04,01,03,58,6.00
2019,04,01,03,59,5.90
2019,04,01,04,00,5.90
2019,04,01,04,01,5.90
2019,04,01,04,02,5.80
2019,04,01,04,03,5.80
2019,04,01,04,04,5.70
2019,04,01,04,05,5.70
2019,04,01,04,06,5.70
2019,04,01,04,07,5.70
2019,04,01,04,08,5.70
2019,04,01,04,09,5.60
2019,04,01,04,10,5.60
2019,04,01,04,11,5.60
2019,04,01,04,12,5.50
2019,04,01,04,13,5.50
2019,04,01,04,14,5.40
2019,04,01,04,15,5.40
2019,04,01,04,16,5.30
2019,04,01,04,17,5.30
2019,04,01,04,18,5.30
2019,04,01,04,19,5.20
2019,04,01,04,20,5.20
2019,04,01,04,21,5.20
2019,04,01,04,22,5.20
2019,04,01,04,23,5.20
2019,04,01,04,24,5.10
2019,04,01,04,25,5.10
2019,04,01,04,26,5.10
2019,04,01,04,27,5.10
2019,04,01,04,28,5.10
2019,04,01,04,29,5.00
2019,04,01,04,30,5.00
2019,04,01,04,31,4.90
2019,04,01,04,32,4.90
2019,04,01,04,33,4.80
2019,04,01,04,34,4.80
2019,04,01,04,35,4.70
2019,04,01,04,36,4.70
2019,04,01,04,37,4.70
2019,04,01,04,38,4.60
2019,04,01,04,39,4.60
2019,04,01,04,40,4.60
2019,04,01,04,41,4.50
2019,04,01,04,42,4.50
2019,04,01,04,43,4.50
2019,04,01,04,44,4.50
2019,04,01,04,45,4.50
2019,04,01,04,46,4.50
2019,04,01,04,47,4.50
2019,04,01,04,48,4.50
2019,04,01,04,49,4.40
2019,04,01,04,50,4.40
2019,04,01,04,51,4.40
2019,04,01,04,52,4.40
2019,04,01,04,53,4.30
2019,04,01,04,54,4.30
2019,04,01,04,55,4.20
2019,04,01,04,56,4.20
2019,04,01,04,57,4.10
2019,04,01,04,58,4.10
2019,04,01,04,59,4.10
2019,04,01,05,00,4.10
2019,04,01,05,01,4.10
2019,04,01,05,02,4.10
2019,04,01,05,03,4.10
2019,04,01,05,04,4.10
2019,04,01,05,05,4.10
2019,04,01,05,06,4.10
2019,04,01,05,07,4.10
2019,04,01,05,08,4.10
2019,04,01,05,09,4.00
2019,04,01,05,10,4.00
2019,04,01,05,11,3.90
2019,04,01,05,12,3.90
2019,04,01,05,13,3.90
2019,04,01,05,14,3.80
2019,04,01,05,15,3.80
2019,04,01,05,16,3.80
2019,04,01,05,17,3.80
2019,04,01,05,18,3.80
2019,04,01,05,19,3.80
2019,04,01,05,20,3.80
2019,04,01,05,21,3.80
2019,04,01,05,22,3.80
2019,04,01,05,23,3.80
2019,04,01,05,24,3.80
2019,04,01,05,25,3.80
2019,04,01,05,26,3.80
2019,04,01,05,27,3.80
2019,04,01,05,28,3.70
2019,04,01,05,29,3.70
2019,04,01,05,30,3.70
2019,04,01,05,31,3.70
2019,04,01,05,32,3.70
2019,04,01,05,33,3.70
2019,04,01,05,34,3.60
2019,04,01,05,35,3.60
2019,04,01,05,36,3.60
2019,04,01,05,37,3.60
2019,04,01,05,38,3.50
2019,04,01,05,39,3.50
2019,04,01,05,40,3.50
2019,04,01,05,41,3.40
2019,04,01,05,42,3.40
2019,04,01,05,43,3.40
2019,04,01,05,44,3.40
2019,04,01,05,45,3.40
2019,04,01,05,46,3.40
2019,04,01,05,47,3.40
2019,04,01,05,48,3.40
2019,04,01,05,49,3.40
2019,04,01,05,50,3.40
2019,04,01,05,51,3.40
2019,04,01,05,52,3.40
2019,04,01,05,53,3.40
2019,04,01,05,54,3.40
2019,04,01,05,55,3.40
2019,04,01,05,56,3.40
2019,04,01,05,57,3.40
2019,04,01,05,58,3.40
2019,04,01,05,59,3.30
2019,04,01,06,00,3.30
2019,04,01,06,01,3.30
2019,04,01,06,02,3.30
2019,04,01,06,03,3.30
2019,04,01,06,04,3.30
2019,04,01,06,05,3.20
2019,04,01,06,06,3.20
2019,04,01,06,07,3.20
2019,04,01,06,08,3.20
2019,04,01,06,09,3.20
2019,04,01,06,10,3.20
2019,04,01,06,11,3.20
2019,04,01,06,12,3.20
2019,04,01,06,13,3.20
2019,04,01,06,14,3.20
2019,04,01,06,15,3.20
2019,04,01,06,16,3.20
2019,04,01,06,17,3.20
2019,04,01,06,18,3.10
2019,04,01,06,19,3.10
2019,04,01,06,20,3.10
2019,04,01,06,21,3.00
2019,04,01,06,22,3.00
2019,04,01,06,23,3.00
2019,04,01,06,24,3.00
2019,04,01,06,25,3.00
2019,04,01,06,26,3.10
2019,04,01,06,27,3.10
2019,04,01,06,28,3.10
2019,04,01,06,29,3.20
2019,04,01,06,30,3.20
2019,04,01,06,31,3.20
2019,04,01,06,32,3.20
2019,04,01,06,33,3.30
2019,04,01,06,34,3.30
2019,04,01,06,35,3.30
2019,04,01,06,36,3.30
2019,04,01,06,37,3.30
2019,04,01,06,38,3.30
2019,04,01,06,39,3.30
2019,04,01,06,40,3.30
2019,04,01,06,41,3.30
2019,04,01,06,42,3.20
2019,04,01,06,43,3.20
2019,04,01,06,44,3.20
2019,04,01,06,45,3.20
2019,04,01,06,46,3.10
2019,04,01,06,47,3.10
2019,04,01,06,48,3.10
2019,04,01,06,49,3.10
2019,04,01,06,50,3.20
2019,04,01,06,51,3.20
2019,04,01,06,52,3.20
2019,04,01,06,53,3.30
2019,04,01,06,54,3.30
2019,04,01,06,55,3.30
2019,04,01,06,56,3.30
2019,04,01,06,57,3.40
2019,04,01,06,58,3.40
2019,04,01,06,59,3.40
2019,04,01,07,00,3.50
2019,04,01,07,01,3.50
2019,04,01,07,02,3.60
2019,04,01,07,03,3.70
2019,04,01,07,04,3.70
2019,04,01,07,05,3.70
2019,04,01,07,06,3.70
2019,04,01,07,07,3.70
2019,04,01,07,08,3.60
2019,04,01,07,09,3.60
2019,04,01,07,10,3.60
2019,04,01,07,11,3.50
2019,04,01,07,12,3.50
2019,04,01,07,13,3.50
2019,04,01,07,14,3.50
2019,04,01,07,15,3.40
2019,04,01,07,16,3.50
2019,04,01,07,17,3.40
2019,04,01,07,18,3.40
2019,04,01,07,19,3.40
2019,04,01,07,20,3.40
2019,04,01,07,21,3.40
2019,04,01,07,22,3.40
2019,04,01,07,23,3.40
2019,04,01,07,24,3.40
2019,04,01,07,25,3.40
2019,04,01,07,26,3.40
2019,04,01,07,27,3.40
2019,04,01,07,28,3.30
2019,04,01,07,29,3.30
2019,04,01,07,30,3.30
2019,04,01,07,31,3.30
2019,04,01,07,32,3.30
2019,04,01,07,33,3.40
2019,04,01,07,34,3.40
2019,04,01,07,35,3.40
2019,04,01,07,36,3.50
2019,04,01,07,37,3.50
2019,04,01,07,38,3.60
2019,04,01,07,39,3.60
2019,04,01,07,40,3.60
2019,04,01,07,41,3.60
2019,04,01,07,42,3.60
2019,04,01,07,43,3.60
2019,04,01,07,44,3.60
2019,04,01,07,45,3.60
2019,04,01,07,46,3.60
2019,04,01,07,47,3.60
2019,04,01,07,48,3.60
2019,04,01,07,49,3.60
2019,04,01,07,50,3.60
2019,04,01,07,51,3.70
2019,04,01,07,52,3.70
2019,04,01,07,53,3.80
2019,04,01,07,54,3.80
2019,04,01,07,55,3.90
2019,04,01,07,56,4.00
2019,04,01,07,57,4.10
2019,04,01,07,58,4.20
2019,04,01,07,59,4.30
2019,04,01,08,00,4.40
2019,04,01,08,01,4.50
2019,04,01,08,02,4.60
2019,04,01,08,03,4.70
2019,04,01,08,04,4.80
2019,04,01,08,05,4.80
2019,04,01,08,06,4.90
2019,04,01,08,07,4.90
2019,04,01,08,08,5.00
2019,04,01,08,09,5.00
2019,04,01,08,10,5.10
2019,04,01,08,11,5.10
2019,04,01,08,12,5.20
2019,04,01,08,13,5.30
2019,04,01,08,14,5.40
2019,04,01,08,15,5.50
2019,04,01,08,16,5.60
2019,04,01,08,17,5.60
2019,04,01,08,18,5.70
2019,04,01,08,19,5.80
2019,04,01,08,20,5.80
2019,04,01,08,21,5.90
2019,04,01,08,22,6.00
2019,04,01,08,23,6.10
2019,04,01,08,24,6.20
2019,04,01,08,25,6.30
2019,04,01,08,26,6.30
2019,04,01,08,27,6.40
2019,04,01,08,28,6.40
2019,04,01,08,29,6.50
2019,04,01,08,30,6.60
2019,04,01,08,31,6.60
2019,04,01,08,32,6.60
2019,04,01,08,33,6.70
2019,04,01,08,34,6.70
2019,04,01,08,35,6.70
2019,04,01,08,36,6.80
2019,04,01,08,37,6.80
2019,04,01,08,38,6.80
2019,04,01,08,39,6.90
2019,04,01,08,40,6.90
2019,04,01,08,41,7.00
2019,04,01,08,42,7.10
2019,04,01,08,43,7.10
2019,04,01,08,44,7.20
2019,04,01,08,45,7.20
2019,04,01,08,46,7.30
2019,04,01,08,47,7.30
2019,04,01,08,48,7.40
2019,04,01,08,49,7.50
2019,04,01,08,50,7.50
2019,04,01,08,51,7.60
2019,04,01,08,52,7.60
2019,04,01,08,53,7.70
2019,04,01,08,54,7.70
2019,04,01,08,55,7.80
2019,04,01,08,56,7.80
2019,04,01,08,57,7.90
2019,04,01,08,58,8.00
2019,04,01,08,59,8.00
2019,04,01,09,00,8.10
2019,04,01,09,01,8.20
2019,04,01,09,02,8.20
2019,04,01,09,03,8.30
2019,04,01,09,04,8.30
2019,04,01,09,05,8.40
2019,04,01,09,06,8.40
2019,04,01,09,07,8.50
2019,04,01,09,08,8.60
2019,04,01,09,09,8.60
2019,04,01,09,10,8.70
2019,04,01,09,11,8.70
2019,04,01,09,12,8.80
2019,04,01,09,13,8.80
2019,04,01,09,14,8.90
2019,04,01,09,15,9.00
2019,04,01,09,16,9.10
2019,04,01,09,17,9.10
2019,04,01,09,18,9.20
2019,04,01,09,19,9.30
2019,04,01,09,20,9.30
2019,04,01,09,21,9.40
2019,04,01,09,22,9.50
2019,04,01,09,23,9.50
2019,04,01,09,24,9.60
2019,04,01,09,25,9.70
2019,04,01,09,26,9.70
2019,04,01,09,27,9.70
2019,04,01,09,28,9.80
2019,04,01,09,29,9.80
2019,04,01,09,30,9.90
2019,04,01,09,31,10.00
2019,04,01,09,32,10.00
2019,04,01,09,33,10.10
2019,04,01,09,34,10.10
2019,04,01,09,35,10.10
2019,04,01,09,36,10.20
2019,04,01,09,37,10.20
2019,04,01,09,38,10.30
2019,04,01,09,39,10.30
2019,04,01,09,40,10.40
2019,04,01,09,41,10.40
2019,04,01,09,42,10.50
2019,04,01,09,43,10.50
2019,04,01,09,44,10.60
2019,04,01,09,45,10.70
2019,04,01,09,46,10.70
2019,04,01,09,47,10.80
2019,04,01,09,48,10.90
2019,04,01,09,49,10.90
2019,04,01,09,50,11.00
2019,04,01,09,51,11.00
2019,04,01,09,52,11.10
2019,04,01,09,53,11.10
2019,04,01,09,54,11.20
2019,04,01,09,55,11.20
2019,04,01,09,56,11.20
2019,04,01,09,57,11.30
2019,04,01,09,58,11.30
2019,04,01,09,59,11.30
2019,04,01,10,00,11.30
2019,04,01,10,01,11.30
2019,04,01,10,02,11.40
2019,04,01,10,03,11.40
2019,04,01,10,04,11.40
2019,04,01,10,05,11.50
2019,04,01,10,06,11.50
2019,04,01,10,07,11.60
2019,04,01,10,08,11.70
2019,04,01,10,09,11.70
2019,04,01,10,10,11.70
2019,04,01,10,11,11.80
2019,04,01,10,12,11.80
2019,04,01,10,13,11.80
2019,04,01,10,14,11.80
2019,04,01,10,15,11.90
2019,04,01,10,16,11.90
2019,04,01,10,17,12.00
2019,04,01,10,18,12.00
2019,04,01,10,19,12.00
2019,04,01,10,20,12.00
2019,04,01,10,21,12.00
2019,04,01,10,22,12.00
2019,04,01,10,23,12.00
2019,04,01,10,24,12.10
2019,04,01,10,25,12.20
2019,04,01,10,26,12.20
2019,04,01,10,27,12.30
2019,04,01,10,28,12.30
2019,04,01,10,29,12.40
2019,04,01,10,30,12.40
2019,04,01,10,31,12.50
2019,04,01,10,32,12.60
2019,04,01,10,33,12.60
2019,04,01,10,34,12.70
2019,04,01,10,35,12.70
2019,04,01,10,36,12.70
2019,04,01,10,37,12.80
2019,04,01,10,38,12.80
2019,04,01,10,39,12.90
2019,04,01,10,40,12.90
2019,04,01,10,41,13.00
2019,04,01,10,42,13.10
2019,04,01,10,43,13.10
2019,04,01,10,44,13.20
2019,04,01,10,45,13.20
2019,04,01,10,46,13.20
2019,04,01,10,47,13.30
2019,04,01,10,48,13.30
2019,04,01,10,49,13.30
2019,04,01,10,50,13.40
2019,04,01,10,51,13.40
2019,04,01,10,52,13.40
2019,04,01,10,53,13.50
2019,04,01,10,54,13.50
2019,04,01,10,55,13.60
2019,04,01,10,56,13.70
2019,04,01,10,57,13.70
2019,04,01,10,58,13.70
2019,04,01,10,59,13.80
2019,04,01,11,00,13.80
2019,04,01,11,01,13.90
2019,04,01,11,02,13.90
2019,04,01,11,03,14.00
2019,04,01,11,04,14.10
2019,04,01,11,05,14.20
2019,04,01,11,06,14.20
2019,04,01,11,07,14.20
2019,04,01,11,08,14.30
2019,04,01,11,09,14.40
2019,04,01,11,10,14.40
2019,04,01,11,11,14.50
2019,04,01,11,12,14.50
2019,04,01,11,13,14.60
2019,04,01,11,14,14.60
2019,04,01,11,15,14.60
2019,04,01,11,16,14.60
2019,04,01,11,17,14.70
2019,04,01,11,18,14.70
2019,04,01,11,19,14.80
2019,04,01,11,20,14.80
2019,04,01,11,21,14.90
2019,04,01,11,22,14.90
2019,04,01,11,23,14.90
2019,04,01,11,24,14.90
2019,04,01,11,25,14.90
2019,04,01,11,26,14.90
2019,04,01,11,27,14.90
2019,04,01,11,28,14.90
2019,04,01,11,29,14.90
2019,04,01,11,30,14.90
2019,04,01,11,31,14.90
2019,04,01,11,32,14.90
2019,04,01,11,33,14.90
2019,04,01,11,34,14.90
2019,04,01,11,35,14.90
2019,04,01,11,36,14.90
2019,04,01,11,37,14.90
2019,04,01,11,38,14.90
2019,04,01,11,39,14.90
2019,04,01,11,40,15.00
2019,04,01,11,41,14.90
2019,04,01,11,42,14.90
2019,04,01,11,43,14.90
2019,04,01,11,44,14.90
2019,04,01,11,45,14.90
2019,04,01,11,46,15.00
2019,04,01,11,47,15.00
2019,04,01,11,48,15.10
2019,04,01,11,49,15.10
2019,04,01,11,50,15.10
2019,04,01,11,51,15.20
2019,04,01,11,52,15.20
2019,04,01,11,53,15.20
2019,04,01,11,54,15.30
2019,04,01,11,55,15.30
2019,04,01,11,56,15.40
2019,04,01,11,57,15.50
2019,04,01,11,58,15.50
2019,04,01,11,59,15.60
2019,04,01,12,00,15.70
2019,04,01,12,01,15.80
2019,04,01,12,02,15.90
2019,04,01,12,03,15.90
2019,04,01,12,04,15.90
2019,04,01,12,05,16.00
2019,04,01,12,06,16.00
2019,04,01,12,07,16.00
2019,04,01,12,08,16.00
2019,04,01,12,09,16.00
2019,04,01,12,10,16.10
2019,04,01,12,11,16.20
2019,04,01,12,12,16.20
2019,04,01,12,13,16.20
2019,04,01,12,14,16.20
2019,04,01,12,15,16.20
2019,04,01,12,16,16.20
2019,04,01,12,17,16.20
2019,04,01,12,18,16.30
2019,04,01,12,19,16.30
2019,04,01,12,20,16.30
2019,04,01,12,21,16.30
2019,04,01,12,22,16.40
2019,04,01,12,23,16.40
2019,04,01,12,24,16.40
2019,04,01,12,25,16.40
2019,04,01,12,26,16.40
2019,04,01,12,27,16.50
2019,04,01,12,28,16.50
2019,04,01,12,29,16.60
2019,04,01,12,30,16.70
2019,04,01,12,31,16.70
2019,04,01,12,32,16.70
2019,04,01,12,33,16.70
2019,04,01,12,34,16.80
2019,04,01,12,35,16.80
2019,04,01,12,36,16.90
2019,04,01,12,37,16.90
2019,04,01,12,38,17.00
2019,04,01,12,39,17.00
2019,04,01,12,40,17.10
2019,04,01,12,41,17.10
2019,04,01,12,42,17.20
2019,04,01,12,43,17.20
2019,04,01,12,44,17.20
2019,04,01,12,45,17.20
2019,04,01,12,46,17.30
2019,04,01,12,47,17.30
2019,04,01,12,48,17.30
2019,04,01,12,49,17.30
2019,04,01,12,50,17.30
2019,04,01,12,51,17.30
2019,04,01,12,52,17.30
2019,04,01,12,53,17.30
2019,04,01,12,54,17.30
2019,04,01,12,55,17.20
2019,04,01,12,56,17.30
2019,04,01,12,57,17.30
2019,04,01,12,58,17.40
2019,04,01,12,59,17.50
2019,04,01,13,00,17.60
2019,04,01,13,01,17.60
2019,04,01,13,02,17.60
2019,04,01,13,03,17.60
2019,04,01,13,04,17.60
2019,04,01,13,05,17.60
2019,04,01,13,06,17.60
2019,04,01,13,07,17.60
2019,04,01,13,08,17.60
2019,04,01,13,09,17.60
2019,04,01,13,10,17.60
2019,04,01,13,11,17.60
2019,04,01,13,12,17.60
2019,04,01,13,13,17.70
2019,04,01,13,14,17.70
2019,04,01,13,15,17.80
2019,04,01,13,16,17.80
2019,04,01,13,17,17.80
2019,04,01,13,18,17.70
2019,04,01,13,19,17.70
2019,04,01,13,20,17.70
2019,04,01,13,21,17.60
2019,04,01,13,22,17.60
2019,04,01,13,23,17.60
2019,04,01,13,24,17.50
2019,04,01,13,25,17.50
2019,04,01,13,26,17.40
2019,04,01,13,27,17.40
2019,04,01,13,28,17.40
2019,04,01,13,29,17.40
2019,04,01,13,30,17.50
2019,04,01,13,31,17.50
2019,04,01,13,32,17.60
2019,04,01,13,33,17.60
2019,04,01,13,34,17.60
2019,04,01,13,35,17.60
2019,04,01,13,36,17.70
2019,04,01,13,37,17.70
2019,04,01,13,38,17.80
2019,04,01,13,39,17.80
2019,04,01,13,40,17.90
2019,04,01,13,41,17.90
2019,04,01,13,42,18.00
2019,04,01,13,43,18.00
2019,04,01,13,44,18.10
2019,04,01,13,45,18.10
2019,04,01,13,46,18.10
2019,04,01,13,47,18.10
2019,04,01,13,48,18.20
2019,04,01,13,49,18.20
2019,04,01,13,50,18.20
2019,04,01,13,51,18.20
2019,04,01,13,52,18.20
2019,04,01,13,53,18.20
2019,04,01,13,54,18.20
2019,04,01,13,55,18.30
2019,04,01,13,56,18.40
2019,04,01,13,57,18.40
2019,04,01,13,58,18.50
2019,04,01,13,59,18.50
2019,04,01,14,00,18.50
2019,04,01,14,01,18.60
2019,04,01,14,02,18.50
2019,04,01,14,03,18.50
2019,04,01,14,04,18.50
2019,04,01,14,05,18.60
2019,04,01,14,06,18.70
2019,04,01,14,07,18.70
2019,04,01,14,08,18.60
2019,04,01,14,09,18.60
2019,04,01,14,10,18.50
2019,04,01,14,11,18.50
2019,04,01,14,12,18.40
2019,04,01,14,13,18.40
2019,04,01,14,14,18.40
2019,04,01,14,15,18.50
2019,04,01,14,16,18.60
2019,04,01,14,17,18.70
2019,04,01,14,18,18.80
2019,04,01,14,19,18.80
2019,04,01,14,20,18.90
2019,04,01,14,21,18.90
2019,04,01,14,22,19.00
2019,04,01,14,23,19.00
2019,04,01,14,24,19.10
2019,04,01,14,25,19.20
2019,04,01,14,26,19.30
2019,04,01,14,27,19.40
2019,04,01,14,28,19.50
2019,04,01,14,29,19.60
2019,04,01,14,30,19.60
2019,04,01,14,31,19.60
2019,04,01,14,32,19.50
2019,04,01,14,33,19.50
2019,04,01,14,34,19.50
2019,04,01,14,35,19.50
2019,04,01,14,36,19.50
2019,04,01,14,37,19.50
2019,04,01,14,38,19.40
2019,04,01,14,39,19.40
2019,04,01,14,40,19.40
2019,04,01,14,41,19.50
2019,04,01,14,42,19.60
2019,04,01,14,43,19.70
2019,04,01,14,44,19.80
2019,04,01,14,45,19.80
2019,04,01,14,46,19.80
2019,04,01,14,47,19.80
2019,04,01,14,48,19.80
2019,04,01,14,49,19.80
2019,04,01,14,50,19.80
2019,04,01,14,51,19.80
2019,04,01,14,52,19.80
2019,04,01,14,53,19.90
2019,04,01,14,54,19.90
2019,04,01,14,55,19.80
2019,04,01,14,56,19.80
2019,04,01,14,57,19.80
2019,04,01,14,58,19.80
2019,04,01,14,59,19.80
2019,04,01,15,00,19.80
2019,04,01,15,01,19.70
2019,04,01,15,02,19.80
2019,04,01,15,03,19.80
2019,04,01,15,04,19.80
2019,04,01,15,05,19.80
2019,04,01,15,06,19.80
2019,04,01,15,07,19.80
2019,04,01,15,08,19.80
2019,04,01,15,09,19.80
2019,04,01,15,10,19.80
2019,04,01,15,11,19.80
2019,04,01,15,12,19.80
2019,04,01,15,13,19.80
2019,04,01,15,14,19.80
2019,04,01,15,15,19.90
2019,04,01,15,16,19.90
2019,04,01,15,17,20.00
2019,04,01,15,18,20.00
2019,04,01,15,19,20.00
2019,04,01,15,20,20.00
2019,04,01,15,21,20.00
2019,04,01,15,22,20.10
2019,04,01,15,23,20.20
2019,04,01,15,24,20.20
2019,04,01,15,25,20.30
2019,04,01,15,26,20.30
2019,04,01,15,27,20.30
2019,04,01,15,28,20.30
2019,04,01,15,29,20.30
2019,04,01,15,30,20.20
2019,04,01,15,31,20.20
2019,04,01,15,32,20.10
2019,04,01,15,33,20.10
2019,04,01,15,34,20.20
2019,04,01,15,35,20.20
2019,04,01,15,36,20.20
2019,04,01,15,37,20.30
2019,04,01,15,38,20.30
2019,04,01,15,39,20.30
2019,04,01,15,40,20.30
2019,04,01,15,41,20.30
2019,04,01,15,42,20.30
2019,04,01,15,43,20.30
2019,04,01,15,44,20.30
2019,04,01,15,45,20.30
2019,04,01,15,46,20.30
2019,04,01,15,47,20.30
2019,04,01,15,48,20.30
2019,04,01,15,49,20.40
2019,04,01,15,50,20.40
2019,04,01,15,51,20.40
2019,04,01,15,52,20.40
2019,04,01,15,53,20.40
2019,04,01,15,54,20.40
2019,04,01,15,55,20.30
2019,04,01,15,56,20.30
2019,04,01,15,57,20.30
2019,04,01,15,58,20.30
2019,04,01,15,59,20.30
2019,04,01,16,00,20.30
2019,04,01,16,01,20.30
2019,04,01,16,02,20.30
2019,04,01,16,03,20.30
2019,04,01,16,04,20.20
2019,04,01,16,05,20.10
2019,04,01,16,06,20.10
2019,04,01,16,07,20.00
2019,04,01,16,08,19.90
2019,04,01,16,09,19.90
2019,04,01,16,10,19.90
2019,04,01,16,11,20.00
2019,04,01,16,12,20.10
2019,04,01,16,13,20.10
2019,04,01,16,14,20.20
2019,04,01,16,15,20.30
2019,04,01,16,16,20.30
2019,04,01,16,17,20.40
2019,04,01,16,18,20.40
2019,04,01,16,19,20.40
2019,04,01,16,20,20.40
2019,04,01,16,21,20.40
2019,04,01,16,22,20.40
2019,04,01,16,23,20.40
2019,04,01,16,24,20.40
2019,04,01,16,25,20.40
2019,04,01,16,26,20.40
2019,04,01,16,27,20.40
2019,04,01,16,28,20.40
2019,04,01,16,29,20.30
2019,04,01,16,30,20.40
2019,04,01,16,31,20.40
2019,04,01,16,32,20.40
2019,04,01,16,33,20.50
2019,04,01,16,34,20.50
2019,04,01,16,35,20.50
2019,04,01,16,36,20.50
2019,04,01,16,37,20.60
2019,04,01,16,38,20.60
2019,04,01,16,39,20.50
2019,04,01,16,40,20.50
2019,04,01,16,41,20.40
2019,04,01,16,42,20.40
2019,04,01,16,43,20.30
2019,04,01,16,44,20.30
2019,04,01,16,45,20.30
2019,04,01,16,46,20.30
2019,04,01,16,47,20.30
2019,04,01,16,48,20.30
2019,04,01,16,49,20.30
2019,04,01,16,50,20.30
2019,04,01,16,51,20.30
2019,04,01,16,52,20.30
2019,04,01,16,53,20.30
2019,04,01,16,54,20.30
2019,04,01,16,55,20.40
2019,04,01,16,56,20.40
2019,04,01,16,57,20.40
2019,04,01,16,58,20.40
2019,04,01,16,59,20.50
2019,04,01,17,00,20.50
2019,04,01,17,01,20.60
2019,04,01,17,02,20.60
2019,04,01,17,03,20.60
2019,04,01,17,04,20.60
2019,04,01,17,05,20.60
2019,04,01,17,06,20.60
2019,04,01,17,07,20.60
2019,04,01,17,08,20.50
2019,04,01,17,09,20.50
2019,04,01,17,10,20.50
2019,04,01,17,11,20.50
2019,04,01,17,12,20.50
2019,04,01,17,13,20.50
2019,04,01,17,14,20.50
2019,04,01,17,15,20.50
2019,04,01,17,16,20.50
2019,04,01,17,17,20.50
2019,04,01,17,18,20.50
2019,04,01,17,19,20.50
2019,04,01,17,20,20.50
2019,04,01,17,21,20.40
2019,04,01,17,22,20.40
2019,04,01,17,23,20.40
2019,04,01,17,24,20.40
2019,04,01,17,25,20.40
2019,04,01,17,26,20.30
2019,04,01,17,27,20.30
2019,04,01,17,28,20.30
2019,04,01,17,29,20.40
2019,04,01,17,30,20.40
2019,04,01,17,31,20.30
2019,04,01,17,32,20.30
2019,04,01,17,33,20.30
2019,04,01,17,34,20.30
2019,04,01,17,35,20.30
2019,04,01,17,36,20.30
2019,04,01,17,37,20.30
2019,04,01,17,38,20.20
2019,04,01,17,39,20.20
2019,04,01,17,40,20.20
2019,04,01,17,41,20.20
2019,04,01,17,42,20.30
2019,04,01,17,43,20.30
2019,04,01,17,44,20.30